Regional Weather Roundup
Issued by NWS Sioux Falls, SD

Home | Current Version | Previous Version | Text Only | Print | Product List | Glossary Off
Versions: 1 2 3 4 5 6 7 8 9 10 11 12 13 14 15 16 17 18 19 20 21 22 23 24 25 26 27 28 29 30 31 32 33 34 35 36 37 38 39 40 41 42 43 44 45 46 47 48 49 50

000
ASUS43 KFSD 081010
RWRFSD

WEATHER ROUNDUP FOR SE SOUTH DAKOTA/SW MINNESOTA/NW IOWA
NATIONAL WEATHER SERVICE SIOUX FALLS SD
400 AM CST THU DEC 08 2016

NOTE: "FAIR" INDICATES FEW OR NO CLOUDS BELOW 12,000 FEET WITH NO
SIGNIFICANT WEATHER AND OR OBSTRUCTIONS TO VISIBILITY.


SDZ038>040-050-052>070-081100-
SOUTHEAST SOUTH DAKOTA

CITY           SKY/WX    TMP DP  RH WIND       PRES   REMARKS
BROOKINGS      FLURRIES   8   3  80 NW23      30.36S WCI -13
CHAMBERLAIN    CLOUDY    10   3  75 NW16G24   30.55R WCI  -8
HURON          CLOUDY     7   2  80 NW21G29   30.50R WCI -13
MADISON        FLURRIES   5   5 100 NW22G29   30.39R WCI -16
MITCHELL       CLOUDY     8   2  76 NW15      30.52R WCI  -9
SIOUX FALLS    CLEAR      8   3  80 NW20G29   30.41R WCI -11
WINNER         CLOUDY     8  -1  66 NW24      30.55R WCI -13
YANKTON        CLEAR    N/A N/A N/A NW23G30   30.48S
$$

MNZ071-072-080-081-089-090-097-098-081100-
SOUTHWEST MINNESOTA

CITY           SKY/WX    TMP DP  RH WIND       PRES   REMARKS
FAIRMONT       FLURRIES  13   7  77 NW24G31   30.29R WCI  -7
JACKSON        CLOUDY    10   5  79 W21G28    30.30R WCI  -9
LUVERNE        LGT SNOW  10   3  72 NW18G28   30.39R WCI  -8
MARSHALL       FLURRIES  13   7  77 NW26G32   30.33R WCI  -7
MONTEVIDEO     FLURRIES  16  10  79 N20       30.33R WCI  -1
PIPESTONE      LGT SNOW   9   3  78 NW18G28   30.34R WCI -10
REDWOOD FALLS  LGT SNOW  15   9  76 NW18G29   30.30R WCI  -2
TRACY          CLOUDY    14   9  79 NW23G31   30.33R WCI  -5
WINDOM         FLURRIES  12   7  79 W22G29    30.29R WCI  -7
WORTHINGTON    LGT SNOW   9   3  78 W26       30.33R WCI -13
$$

IAZ001>003-012>014-020>022-031-032-NEZ013-014-SDZ071-081100-
NORTHWEST IOWA

CITY           SKY/WX    TMP DP  RH WIND       PRES   REMARKS
CHEROKEE       CLOUDY    10   4  75 NW14G25   30.42R WCI  -6
DENISON        PTCLDY    10   3  72 NW20G25   30.41S WCI  -8
ESTHERVILLE    CLOUDY    10   5  80 NW25G32   30.31R WCI -11
LE MARS        MOCLDY     9   1  72 NW18G25   30.47S WCI -10
ORANGE CITY    CLOUDY     9   3  78 NW21G29   30.40R WCI -11
SHELDON        CLOUDY     9   5  85 NW21G29   30.37R WCI -11
SIOUX CITY     CLEAR     12   2  64 NW18G31   30.47R WCI  -6
SPENCER        CLOUDY    11   4  73 W31G44    30.35R WCI -11
STORM LAKE     FLURRIES   9   3  78 W28G33    30.36F WCI -13
$$

ABBREVIATIONS USED IN REMARKS
   TC - TEMPERATURE IN CELSIUS
  WCI - WIND CHILL INDEX
   HX - HEAT INDEX
  VSB - VISIBILITY




USA.gov is the U.S. government's official web portal to all federal, state and local government web resources and services.